| time (UTC) | temp F | wind direction | speed knots | gust knots | rain 1hr in | rain 24hr in | rain mn in | humidity % | barometer mb |
| 20260506034047 | 46 | 210 | 2.6 | 2.6 | 0.00 | 0.00 | 0.00 | 50 | 1015.8 |
| 20260506033547 | 46 | 253 | 2.6 | 2.6 | 0.00 | 0.00 | 0.00 | 50 | 1015.7 |
| 20260506033047 | 46 | 220 | 1.7 | 1.7 | 0.00 | 0.00 | 0.00 | 50 | 1015.6 |
| 20260506031046 | 46 | 224 | 2.6 | 5.2 | 0.00 | 0.00 | 0.00 | 50 | 1015.3 |
| 20260506030510 | 47 | 199 | 2.6 | 3.5 | 0.00 | 0.00 | 0.00 | 49 | 1015.3 |
| 20260506030010 | 47 | 191 | 2.6 | 3.5 | 0.00 | 0.00 | 0.00 | 49 | 1015.2 |
| 20260506025546 | 47 | 174 | 2.6 | 2.6 | 0.00 | 0.00 | 0.00 | 49 | 1015.3 |
| 20260506025010 | 47 | 176 | 2.6 | 4.3 | 0.00 | 0.00 | 0.00 | 48 | 1015.0 |
| 20260506024547 | 47 | 216 | 4.3 | 6.1 | 0.00 | 0.00 | 0.00 | 48 | 1015.0 |
| 20260506024046 | 48 | 195 | 1.7 | 4.3 | 0.00 | 0.00 | 0.00 | 47 | 1014.7 |
| 20260506023547 | 49 | 224 | 7.8 | 8.7 | 0.00 | 0.00 | 0.00 | 44 | 1014.7 |
| 20260506023010 | 49 | 224 | 7.8 | 8.7 | 0.00 | 0.00 | 0.00 | 44 | 1014.6 |
| 20260506022547 | 49 | 224 | 7.8 | 8.7 | 0.00 | 0.00 | 0.00 | 44 | 1014.6 |
| 20260506022047 | 49 | 224 | 7.8 | 8.7 | 0.00 | 0.00 | 0.00 | 44 | 1014.6 |
| 20260506021509 | 49 | 224 | 7.8 | 8.7 | 0.00 | 0.00 | 0.00 | 44 | 1014.3 |
| 20260506021009 | 49 | 224 | 7.8 | 8.7 | 0.00 | 0.00 | 0.00 | 44 | 1014.3 |
| 20260506020546 | 52 | 226 | 6.1 | 9.6 | 0.00 | 0.00 | 0.00 | 41 | 1014.4 |
| 20260506020009 | 52 | 226 | 6.1 | 9.6 | 0.00 | 0.00 | 0.00 | 41 | 1014.3 |
| 20260506015546 | 52 | 226 | 6.1 | 9.6 | 0.00 | 0.00 | 0.00 | 41 | 1014.2 |
| 20260506015047 | 52 | 226 | 6.1 | 9.6 | 0.00 | 0.00 | 0.00 | 41 | 1014.1 |
| 20260506014546 | 52 | 226 | 6.1 | 9.6 | 0.00 | 0.00 | 0.00 | 41 | 1014.0 |
| 20260506014009 | 52 | 226 | 6.1 | 9.6 | 0.00 | 0.00 | 0.00 | 41 | 1014.1 |
| 20260506013546 | 52 | 226 | 6.1 | 9.6 | 0.00 | 0.00 | 0.00 | 41 | 1014.0 |
| 20260506010546 | 53 | 217 | 3.5 | 4.3 | 0.00 | 0.00 | 0.00 | 40 | 1013.9 |
| 20260506010046 | 53 | 217 | 3.5 | 4.3 | 0.00 | 0.00 | 0.00 | 40 | 1013.8 |
| 20260506005547 | 53 | 217 | 3.5 | 4.3 | 0.00 | 0.00 | 0.00 | 40 | 1013.9 |
| 20260506005046 | 53 | 217 | 3.5 | 4.3 | 0.00 | 0.00 | 0.00 | 40 | 1013.9 |
| 20260506004546 | 53 | 217 | 3.5 | 4.3 | 0.00 | 0.00 | 0.00 | 40 | 1013.9 |
| 20260506004047 | 53 | 217 | 3.5 | 4.3 | 0.00 | 0.00 | 0.00 | 40 | 1013.8 |
| 20260506003547 | 53 | 217 | 3.5 | 4.3 | 0.00 | 0.00 | 0.00 | 40 | 1013.9 |
| 20260506003010 | 53 | 217 | 3.5 | 4.3 | 0.00 | 0.00 | 0.00 | 40 | 1013.7 |
| 20260506002547 | 53 | 217 | 3.5 | 4.3 | 0.00 | 0.00 | 0.00 | 40 | 1013.8 |
| 20260506002046 | 53 | 217 | 3.5 | 4.3 | 0.00 | 0.00 | 0.00 | 40 | 1013.8 |
| 20260506001546 | 53 | 217 | 3.5 | 4.3 | 0.00 | 0.00 | 0.00 | 40 | 1013.5 |
| 20260506001047 | 53 | 217 | 3.5 | 4.3 | 0.00 | 0.00 | 0.00 | 40 | 1013.5 |
| 20260506000547 | 53 | 235 | 9.6 | 15.6 | 0.00 | 0.00 | 0.00 | 40 | 1013.6 |
| 20260506000010 | 52 | 202 | 12.2 | 17.4 | 0.00 | 0.00 | 0.00 | 40 | 1013.4 |
| 20260505235547 | 53 | 218 | 7.8 | 13.9 | 0.00 | 0.00 | 0.00 | 39 | 1013.5 |
| 20260505235047 | 52 | 206 | 9.6 | 16.5 | 0.00 | 0.00 | 0.00 | 40 | 1013.5 |
| 20260505234510 | 53 | 178 | 11.3 | 17.4 | 0.00 | 0.00 | 0.00 | 39 | 1013.4 |
| 20260505234010 | 53 | 205 | 14.8 | 18.2 | 0.00 | 0.00 | 0.00 | 39 | 1013.5 |
| 20260505233547 | 54 | 150 | 7.0 | 8.7 | 0.00 | 0.00 | 0.00 | 39 | 1013.1 |
| 20260505233010 | 53 | 217 | 10.4 | 20.0 | 0.00 | 0.00 | 0.00 | 40 | 1013.2 |
| 20260505232546 | 53 | 214 | 3.5 | 18.2 | 0.00 | 0.00 | 0.00 | 40 | 1013.0 |
| 20260505232046 | 54 | 213 | 4.3 | 15.6 | 0.00 | 0.00 | 0.00 | 39 | 1013.1 |
| 20260505231546 | 54 | 223 | 6.1 | 11.3 | 0.00 | 0.00 | 0.00 | 38 | 1013.1 |
| 20260505231010 | 54 | 208 | 9.6 | 24.3 | 0.00 | 0.00 | 0.00 | 37 | 1013.0 |
| 20260505230547 | 55 | 211 | 13.9 | 14.8 | 0.00 | 0.00 | 0.00 | 34 | 1013.0 |
| 20260505230047 | 55 | 211 | 13.9 | 14.8 | 0.00 | 0.00 | 0.00 | 34 | 1013.0 |
| 20260505224047 | 57 | 188 | 11.3 | 19.1 | 0.00 | 0.00 | 0.00 | 33 | 1013.1 |
| 20260505223547 | 57 | 188 | 11.3 | 19.1 | 0.00 | 0.00 | 0.00 | 33 | 1013.3 |
| 20260505223047 | 54 | 225 | 8.7 | 9.6 | 0.00 | 0.00 | 0.00 | 35 | 1013.1 |
| 20260505222547 | 55 | 195 | 12.2 | 22.6 | 0.00 | 0.00 | 0.00 | 34 | 1013.5 |
| 20260505222011 | 55 | 264 | 15.6 | 16.5 | 0.00 | 0.00 | 0.00 | 34 | 1013.4 |
| 20260505221547 | 56 | 196 | 13.0 | 22.6 | 0.00 | 0.00 | 0.00 | 32 | 1013.3 |
| 20260505221047 | 57 | 217 | 5.2 | 10.4 | 0.00 | 0.00 | 0.00 | 33 | 1013.4 |
| 20260505220511 | 56 | 200 | 13.9 | 17.4 | 0.00 | 0.00 | 0.00 | 33 | 1013.6 |
| 20260505214546 | 56 | 214 | 11.3 | 12.2 | 0.00 | 0.00 | 0.00 | 36 | 1013.6 |
| 20260505214046 | 56 | 214 | 11.3 | 12.2 | 0.00 | 0.00 | 0.00 | 36 | 1013.6 |
| 20260505213547 | 56 | 214 | 11.3 | 12.2 | 0.00 | 0.00 | 0.00 | 36 | 1013.3 |
| 20260505213011 | 56 | 214 | 11.3 | 12.2 | 0.00 | 0.00 | 0.00 | 36 | 1013.8 |
| 20260505212546 | 55 | 196 | 11.3 | 16.5 | 0.00 | 0.00 | 0.00 | 38 | 1013.8 |
| 20260505212046 | 55 | 196 | 11.3 | 16.5 | 0.00 | 0.00 | 0.00 | 38 | 1013.8 |
| 20260505211511 | 57 | 189 | 5.2 | 11.3 | 0.00 | 0.00 | 0.00 | 39 | 1013.9 |
| 20260505211010 | 56 | 223 | 7.8 | 8.7 | 0.00 | 0.00 | 0.00 | 41 | 1013.8 |
| 20260505210546 | 56 | 223 | 10.4 | 14.8 | 0.00 | 0.00 | 0.00 | 41 | 1013.8 |
| 20260505210046 | 53 | 170 | 7.0 | 9.6 | 0.00 | 0.00 | 0.00 | 48 | 1013.8 |
| 20260505205546 | 53 | 170 | 7.0 | 9.6 | 0.00 | 0.00 | 0.00 | 48 | 1013.9 |
| 20260505205046 | 53 | 171 | 7.0 | 15.6 | 0.00 | 0.00 | 0.00 | 49 | 1014.0 |
| 20260505204546 | 54 | 174 | 12.2 | 21.7 | 0.00 | 0.00 | 0.00 | 47 | 1013.8 |
| 20260505204010 | 56 | 221 | 12.2 | 15.6 | 0.00 | 0.00 | 0.00 | 45 | 1013.9 |
| 20260505203547 | 54 | 200 | 13.9 | 16.5 | 0.00 | 0.00 | 0.00 | 47 | 1013.8 |
| 20260505202010 | 52 | 128 | 4.3 | 12.2 | 0.00 | 0.00 | 0.00 | 46 | 1014.2 |
| 20260505201547 | 52 | 128 | 4.3 | 12.2 | 0.00 | 0.00 | 0.00 | 46 | 1014.2 |
| 20260505201011 | 52 | 128 | 4.3 | 12.2 | 0.00 | 0.00 | 0.00 | 46 | 1014.2 |
| 20260505195011 | 52 | 128 | 4.3 | 12.2 | 0.00 | 0.00 | 0.00 | 46 | 1014.4 |
| 20260505194546 | 52 | 128 | 4.3 | 12.2 | 0.00 | 0.00 | 0.00 | 46 | 1014.4 |
| 20260505194046 | 52 | 128 | 4.3 | 12.2 | 0.00 | 0.00 | 0.00 | 46 | 1014.3 |
| 20260505192046 | 52 | 173 | 11.3 | 16.5 | 0.00 | 0.00 | 0.00 | 46 | 1014.6 |
| 20260505191546 | 52 | 171 | 13.0 | 13.0 | 0.00 | 0.00 | 0.00 | 49 | 1014.4 |
| 20260505191047 | 53 | 221 | 7.8 | 13.9 | 0.00 | 0.00 | 0.00 | 50 | 1014.5 |
| 20260505185047 | 51 | 262 | 8.7 | 9.6 | 0.00 | 0.00 | 0.00 | 57 | 1014.5 |
| 20260505184511 | 51 | 262 | 8.7 | 9.6 | 0.00 | 0.00 | 0.00 | 57 | 1014.4 |
| 20260505184047 | 51 | 193 | 9.6 | 11.3 | 0.00 | 0.00 | 0.00 | 54 | 1014.4 |
| 20260505183546 | 51 | 193 | 9.6 | 11.3 | 0.00 | 0.00 | 0.00 | 54 | 1014.5 |
| 20260505183010 | 53 | 222 | 8.7 | 10.4 | 0.00 | 0.00 | 0.00 | 50 | 1014.6 |
| 20260505182546 | 53 | 222 | 8.7 | 13.9 | 0.00 | 0.00 | 0.00 | 50 | 1014.3 |
| 20260505182046 | 54 | 132 | 3.5 | 9.6 | 0.00 | 0.00 | 0.00 | 48 | 1014.3 |
| 20260505181547 | 54 | 179 | 4.3 | 9.6 | 0.00 | 0.00 | 0.00 | 48 | 1014.3 |
| 20260505175546 | 52 | 141 | 10.4 | 12.2 | 0.00 | 0.00 | 0.00 | 51 | 1014.3 |
| 20260505175010 | 53 | 213 | 5.2 | 18.2 | 0.00 | 0.00 | 0.00 | 50 | 1014.2 |
| 20260505174547 | 54 | 157 | 7.8 | 15.6 | 0.00 | 0.00 | 0.00 | 47 | 1014.2 |
| 20260505174011 | 53 | 153 | 9.6 | 18.2 | 0.00 | 0.00 | 0.00 | 50 | 1014.3 |
| 20260505173547 | 53 | 170 | 10.4 | 13.0 | 0.00 | 0.00 | 0.00 | 51 | 1014.3 |
| 20260505173047 | 50 | 203 | 12.2 | 15.6 | 0.00 | 0.00 | 0.00 | 55 | 1014.2 |
| 20260505171546 | 51 | 135 | 8.7 | 13.9 | 0.00 | 0.00 | 0.00 | 51 | 1014.2 |
| 20260505171046 | 51 | 121 | 7.8 | 13.0 | 0.00 | 0.00 | 0.00 | 52 | 1014.2 |
| 20260505170547 | 54 | 196 | 13.9 | 16.5 | 0.00 | 0.00 | 0.00 | 49 | 1014.2 |
| 20260505170011 | 54 | 137 | 4.3 | 11.3 | 0.00 | 0.00 | 0.00 | 50 | 1014.1 |
| 20260505165503 | 55 | 164 | 11.3 | 11.3 | 0.00 | 0.00 | 0.00 | 47 | 1014.1 |
| 20260505165046 | 53 | 164 | 4.3 | 7.0 | 0.00 | 0.00 | 0.00 | 52 | 1014.0 |
| 20260505164546 | 55 | 175 | 11.3 | 14.8 | 0.00 | 0.00 | 0.00 | 49 | 1014.1 |
| 20260505164047 | 53 | 129 | 11.3 | 14.8 | 0.00 | 0.00 | 0.00 | 51 | 1014.1 |
| 20260505163547 | 55 | 139 | 7.8 | 15.6 | 0.00 | 0.00 | 0.00 | 48 | 1014.2 |
| 20260505163010 | 52 | 163 | 6.1 | 7.8 | 0.00 | 0.00 | 0.00 | 54 | 1014.1 |
| 20260505162547 | 51 | 144 | 4.3 | 12.2 | 0.00 | 0.00 | 0.00 | 55 | 1014.1 |
| 20260505162046 | 50 | 134 | 4.3 | 15.6 | 0.00 | 0.00 | 0.00 | 56 | 1014.1 |
| 20260505161511 | 51 | 191 | 4.3 | 13.0 | 0.00 | 0.00 | 0.00 | 54 | 1014.4 |
| 20260505161010 | 52 | 281 | 3.5 | 7.8 | 0.00 | 0.00 | 0.00 | 55 | 1014.3 |
| 20260505160546 | 52 | 220 | 2.6 | 8.7 | 0.00 | 0.00 | 0.00 | 56 | 1014.4 |
| 20260505153046 | 50 | 128 | 9.6 | 17.4 | 0.00 | 0.00 | 0.00 | 60 | 1014.1 |
| 20260505152511 | 51 | 136 | 11.3 | 13.0 | 0.00 | 0.00 | 0.00 | 58 | 1014.1 |
| 20260505152011 | 51 | 135 | 6.1 | 11.3 | 0.00 | 0.00 | 0.00 | 57 | 1014.2 |
| 20260505151547 | 51 | 126 | 7.0 | 8.7 | 0.00 | 0.00 | 0.00 | 57 | 1014.1 |
| 20260505151010 | 50 | 107 | 3.5 | 5.2 | 0.00 | 0.00 | 0.00 | 57 | 1014.0 |
| 20260505150546 | 50 | 116 | 6.1 | 9.6 | 0.00 | 0.00 | 0.00 | 59 | 1014.2 |
| 20260505140546 | 46 | 255 | 2.6 | 9.6 | 0.00 | 0.00 | 0.00 | 64 | 1014.0 |
| 20260505125010 | 45 | 106 | 2.6 | 6.1 | 0.00 | 0.00 | 0.00 | 61 | 1013.8 |
| 20260505124547 | 45 | 125 | 4.3 | 6.1 | 0.00 | 0.00 | 0.00 | 61 | 1013.8 |
| 20260505124046 | 45 | 79 | 1.7 | 6.1 | 0.00 | 0.00 | 0.00 | 60 | 1013.6 |
| 20260505123527 | 45 | 128 | 5.2 | 7.0 | 0.00 | 0.00 | 0.00 | 60 | 1013.7 |
| 20260505123047 | 45 | 122 | 4.3 | 6.1 | 0.00 | 0.00 | 0.00 | 60 | 1013.7 |
| 20260505122546 | 45 | 98 | 2.6 | 7.8 | 0.00 | 0.00 | 0.00 | 60 | 1013.5 |
| 20260505122046 | 45 | 97 | 1.7 | 4.3 | 0.00 | 0.00 | 0.00 | 60 | 1013.7 |
| 20260505121547 | 45 | 168 | 3.5 | 6.1 | 0.00 | 0.00 | 0.00 | 60 | 1013.6 |
| 20260505121047 | 44 | 165 | 2.6 | 6.1 | 0.00 | 0.00 | 0.00 | 61 | 1013.7 |
| 20260505120510 | 44 | 186 | 1.7 | 4.3 | 0.00 | 0.00 | 0.00 | 63 | 1013.5 |
| 20260505120010 | 44 | 154 | 0.0 | 3.5 | 0.00 | 0.00 | 0.00 | 62 | 1013.3 |
| 20260505115547 | 44 | 164 | 2.6 | 6.1 | 0.00 | 0.00 | 0.00 | 61 | 1013.6 |
| 20260505115011 | 44 | 132 | 3.5 | 5.2 | 0.00 | 0.00 | 0.00 | 62 | 1013.7 |
| 20260505114546 | 44 | 113 | 2.6 | 7.8 | 0.00 | 0.00 | 0.00 | 62 | 1013.7 |
| 20260505114046 | 44 | 186 | 2.6 | 4.3 | 0.00 | 0.00 | 0.00 | 64 | 1013.8 |
| 20260505113547 | 44 | 99 | 2.6 | 5.2 | 0.00 | 0.00 | 0.00 | 64 | 1013.8 |
| 20260505113010 | 43 | 108 | 2.6 | 2.6 | 0.00 | 0.00 | 0.00 | 66 | 1013.8 |
| 20260505112546 | 44 | 160 | 1.7 | 3.5 | 0.00 | 0.00 | 0.00 | 65 | 1013.8 |
| 20260505112046 | 44 | 194 | 1.7 | 5.2 | 0.00 | 0.00 | 0.00 | 66 | 1013.9 |
| 20260505111510 | 44 | 192 | 1.7 | 2.6 | 0.00 | 0.00 | 0.00 | 65 | 1013.7 |
| 20260505111047 | 45 | 89 | 1.7 | 2.6 | 0.00 | 0.00 | 0.00 | 63 | 1013.7 |
| 20260505110546 | 45 | 105 | 4.3 | 7.8 | 0.00 | 0.00 | 0.00 | 62 | 1013.8 |
| 20260505102011 | 43 | 76 | 1.7 | 2.6 | 0.00 | 0.00 | 0.00 | 68 | 1014.1 |
| 20260505101546 | 44 | 43 | 2.6 | 4.3 | 0.00 | 0.00 | 0.00 | 68 | 1014.1 |
| 20260505101011 | 43 | 73 | 2.6 | 2.6 | 0.00 | 0.00 | 0.00 | 68 | 1014.1 |
| 20260505100546 | 43 | 37 | 1.7 | 2.6 | 0.00 | 0.00 | 0.00 | 68 | 1014.3 |
| 20260505100046 | 44 | 353 | 0.0 | 1.7 | 0.00 | 0.00 | 0.00 | 67 | 1014.2 |
| 20260505095547 | 44 | 69 | 2.6 | 3.5 | 0.00 | 0.00 | 0.00 | 67 | 1014.3 |
| 20260505095011 | 44 | 123 | 2.6 | 2.6 | 0.00 | 0.00 | 0.00 | 66 | 1014.3 |
| 20260505094546 | 44 | 31 | 3.5 | 4.3 | 0.00 | 0.00 | 0.00 | 67 | 1014.4 |
| 20260505094047 | 44 | 163 | 1.7 | 3.5 | 0.00 | 0.00 | 0.00 | 66 | 1014.3 |
| 20260505092046 | 43 | 66 | 1.7 | 1.7 | 0.00 | 0.00 | 0.00 | 66 | 1014.6 |
| 20260505091546 | 44 | 138 | 3.5 | 3.5 | 0.00 | 0.00 | 0.00 | 65 | 1014.7 |
| 20260505091047 | 44 | 267 | 1.7 | 2.6 | 0.00 | 0.00 | 0.00 | 64 | 1014.7 |
| 20260505090546 | 45 | 106 | 2.6 | 4.3 | 0.00 | 0.00 | 0.00 | 63 | 1014.7 |
| 20260505090011 | 46 | 105 | 2.6 | 6.1 | 0.00 | 0.00 | 0.00 | 61 | 1015.1 |
| 20260505085547 | 46 | 150 | 5.2 | 6.1 | 0.00 | 0.00 | 0.00 | 61 | 1015.1 |
| 20260505085046 | 46 | 134 | 4.3 | 6.1 | 0.00 | 0.00 | 0.00 | 61 | 1015.2 |
| 20260505084511 | 46 | 123 | 2.6 | 10.4 | 0.00 | 0.00 | 0.00 | 60 | 1015.2 |
| 20260505084010 | 46 | 139 | 7.8 | 8.7 | 0.00 | 0.00 | 0.00 | 61 | 1015.1 |
| 20260505083527 | 46 | 121 | 3.5 | 5.2 | 0.00 | 0.00 | 0.00 | 62 | 1015.3 |
| 20260505083047 | 45 | 208 | 5.2 | 7.8 | 0.00 | 0.00 | 0.00 | 62 | 1015.3 |
| 20260505082546 | 44 | 188 | 4.3 | 5.2 | 0.00 | 0.00 | 0.00 | 64 | 1015.2 |
| 20260505082046 | 45 | 118 | 3.5 | 5.2 | 0.00 | 0.00 | 0.00 | 64 | 1015.3 |
| 20260505081547 | 46 | 115 | 3.5 | 7.8 | 0.00 | 0.00 | 0.00 | 62 | 1015.3 |
| 20260505081010 | 46 | 129 | 2.6 | 7.0 | 0.00 | 0.00 | 0.00 | 63 | 1015.3 |
| 20260505080546 | 45 | 182 | 5.2 | 8.7 | 0.00 | 0.00 | 0.00 | 64 | 1015.1 |
| 20260505080046 | 44 | 109 | 2.6 | 4.3 | 0.00 | 0.00 | 0.00 | 67 | 1015.2 |
| 20260505074010 | 44 | 356 | 2.6 | 3.5 | 0.00 | 0.00 | 0.00 | 70 | 1015.1 |
| 20260505073547 | 45 | 63 | 3.5 | 4.3 | 0.00 | 0.00 | 0.00 | 69 | 1015.2 |
| 20260505073047 | 44 | 50 | 2.6 | 2.6 | 0.00 | 0.00 | 0.00 | 70 | 1015.3 |
| 20260505072546 | 45 | 48 | 2.6 | 2.6 | 0.00 | 0.00 | 0.00 | 69 | 1015.2 |
| 20260505072010 | 45 | 37 | 0.0 | 4.3 | 0.00 | 0.00 | 0.00 | 68 | 1015.3 |
| 20260505071547 | 46 | 87 | 2.6 | 3.5 | 0.00 | 0.00 | 0.00 | 67 | 1015.3 |
| 20260505071046 | 46 | 60 | 1.7 | 4.3 | 0.00 | 0.00 | 0.00 | 67 | 1015.1 |
| 20260505070516 | 45 | 113 | 3.5 | 3.5 | 0.00 | 0.00 | 0.00 | 69 | 1015.3 |
| 20260505070005 | 46 | 89 | 1.7 | 2.6 | 0.00 | 0.00 | 0.00 | 68 | 1015.3 |
| 20260505065547 | 46 | 100 | 0.0 | 1.7 | 0.00 | 0.00 | 0.00 | 66 | 1015.4 |
| 20260505065047 | 46 | 14 | 3.5 | 3.5 | 0.00 | 0.00 | 0.00 | 67 | 1015.2 |
| 20260505064546 | 46 | 63 | 2.6 | 4.3 | 0.00 | 0.00 | 0.00 | 67 | 1015.2 |
| 20260505064046 | 46 | 54 | 0.0 | 1.7 | 0.00 | 0.00 | 0.00 | 66 | 1015.4 |
| 20260505063547 | 47 | 102 | 4.3 | 5.2 | 0.00 | 0.00 | 0.00 | 65 | 1015.4 |
| 20260505063046 | 47 | 127 | 3.5 | 4.3 | 0.00 | 0.00 | 0.00 | 63 | 1015.7 |
| 20260505062546 | 47 | 106 | 4.3 | 5.2 | 0.00 | 0.00 | 0.00 | 63 | 1015.5 |
| 20260505062047 | 47 | 199 | 1.7 | 6.1 | 0.00 | 0.00 | 0.00 | 61 | 1015.3 |
| 20260505061547 | 47 | 144 | 2.6 | 4.3 | 0.00 | 0.00 | 0.00 | 61 | 1015.2 |
| 20260505061012 | 48 | 137 | 5.2 | 7.0 | 0.00 | 0.00 | 0.00 | 60 | 1015.3 |
| 20260505060546 | 48 | 138 | 4.3 | 6.1 | 0.00 | 0.00 | 0.00 | 60 | 1015.4 |
| 20260505060011 | 48 | 46 | 0.0 | 3.5 | 0.00 | 0.00 | 0.00 | 58 | 1015.6 |
| 20260505055546 | 48 | 143 | 4.3 | 6.1 | 0.00 | 0.00 | 0.00 | 58 | 1015.6 |
| 20260505055046 | 48 | 192 | 1.7 | 4.3 | 0.00 | 0.00 | 0.00 | 56 | 1015.7 |
| 20260505054547 | 48 | 68 | 3.5 | 3.5 | 0.00 | 0.00 | 0.00 | 56 | 1015.6 |
| 20260505054012 | 48 | 117 | 1.7 | 4.3 | 0.00 | 0.00 | 0.00 | 55 | 1015.8 |
| 20260505053547 | 48 | 113 | 5.2 | 5.2 | 0.00 | 0.00 | 0.00 | 54 | 1015.9 |
| 20260505053047 | 49 | 187 | 8.7 | 11.3 | 0.00 | 0.00 | 0.00 | 54 | 1015.8 |
| 20260505052511 | 49 | 135 | 6.1 | 13.9 | 0.00 | 0.00 | 0.00 | 52 | 1015.8 |
| 20260505052046 | 49 | 206 | 4.3 | 12.2 | 0.00 | 0.00 | 0.00 | 52 | 1015.7 |
| 20260505051547 | 49 | 130 | 1.7 | 8.7 | 0.00 | 0.00 | 0.00 | 51 | 1015.5 |
| 20260505051011 | 49 | 128 | 3.5 | 4.3 | 0.00 | 0.00 | 0.00 | 50 | 1015.6 |
| 20260505050547 | 49 | 147 | 4.3 | 9.6 | 0.00 | 0.00 | 0.00 | 49 | 1015.7 |
| 20260505041547 | 50 | 154 | 4.3 | 12.2 | 0.00 | 0.00 | 0.00 | 46 | 1015.7 |
| 20260505041047 | 50 | 109 | 3.5 | 6.1 | 0.00 | 0.00 | 0.00 | 47 | 1015.8 |
| 20260505035047 | 50 | 130 | 3.5 | 7.0 | 0.00 | 0.00 | 0.00 | 47 | 1015.8 |
| 20260505034511 | 50 | 177 | 6.1 | 17.4 | 0.00 | 0.00 | 0.00 | 46 | 1015.6 |